GUNLAK-WX Weather Reports


time (UTC)temp
C
wind
direction
speed
KPH
gust
KPH
rain 1hr
cm
rain 24hr
cm
rain mn
cm
humidity
%
barometer
mb
20260901104617 20 174 6.4 0.0 0.00 0.00 0.00 87 987.0
20260901103118 20 175 6.4 0.0 0.00 0.00 0.00 87 987.0
20260901101621 20 177 6.4 0.0 0.00 0.00 0.00 87 987.0
20260901100122 20 170 6.4 0.0 0.00 0.00 0.00 87 987.0
20260901094614 20 165 8.0 0.0 0.00 0.00 0.00 87 985.8
20260901093119 21 162 6.4 0.0 0.00 0.00 0.00 88 986.2
20260901091620 20 170 6.4 0.0 0.00 0.00 0.00 88 986.1
20260901090119 20 175 6.4 0.0 0.00 0.00 0.00 88 986.1
20260901084613 20 185 6.4 0.0 0.00 0.00 0.00 88 985.9
20260901083118 21 185 6.4 0.0 0.00 0.00 0.00 86 985.4
20260901081619 21 200 8.0 0.0 0.00 0.00 0.00 86 985.4
20260901080115 21 191 8.0 0.0 0.00 0.00 0.00 85 985.9
20260901074619 21 187 8.0 0.0 0.00 0.00 0.00 86 985.6
20260901073118 21 180 6.4 0.0 0.00 0.00 0.00 86 985.6
20260901071613 21 185 8.0 0.0 0.00 0.00 0.00 86 985.6
20260901070113 21 180 8.0 0.0 0.00 0.00 0.00 86 985.6
20260901064620 21 185 8.0 0.0 0.00 0.00 0.00 87 985.9
20260901063107 21 203 6.4 0.0 0.00 0.00 0.00 87 985.9
20260901061614 21 198 6.4 0.0 0.00 0.00 0.00 87 985.9
20260901060119 21 204 8.0 0.0 0.00 0.00 0.00 87 985.9
20260901054618 22 199 8.0 0.0 0.00 0.00 0.00 86 986.1
20260901053119 22 185 8.0 0.0 0.00 0.00 0.00 90 985.8
20260901051613 22 193 6.4 0.0 0.00 0.00 0.00 90 985.8
20260901050124 22 204 6.4 0.0 0.00 0.00 0.00 90 985.8
20260901044618 22 207 6.4 0.0 0.00 0.00 0.00 87 986.0
20260901043113 22 197 6.4 0.0 0.00 0.00 0.00 87 985.8
20260901041617 22 182 8.0 0.0 0.00 0.00 0.00 87 985.8
20260901040122 22 193 4.8 0.0 0.00 0.00 0.00 87 985.8
20260901034617 22 195 6.4 0.0 0.00 0.00 0.00 84 985.7
20260901033117 22 205 8.0 0.0 0.00 0.00 0.00 85 986.0
20260901031617 23 211 11.3 0.0 0.00 0.00 0.00 85 986.0
20260901030117 23 217 9.7 0.0 0.00 0.00 0.00 85 986.0
20260901024617 23 201 11.3 0.0 0.00 0.00 0.00 82 987.0
20260901023117 23 205 9.7 0.0 0.00 0.00 0.00 84 986.6
20260901021615 22 195 9.7 0.0 0.00 0.00 0.00 84 986.5
20260901020122 22 204 9.7 0.0 0.00 0.00 0.00 84 986.5
20260901014616 22 208 8.0 0.0 0.00 0.00 0.00 84 986.5
20260901013114 23 196 9.7 0.0 0.00 0.00 0.00 84 986.5
20260901011616 22 213 6.4 0.0 0.00 0.00 0.00 84 986.5
20260901010119 23 199 8.0 0.0 0.00 0.00 0.00 84 986.5
20260901004616 23 197 9.7 0.0 0.00 0.00 0.00 80 986.4
20260901003115 23 209 6.4 0.0 0.00 0.00 0.00 77 986.1
20260901001616 24 199 8.0 0.0 0.00 0.00 0.00 77 986.1
20260901000114 25 220 8.0 0.0 0.00 0.00 0.00 77 986.1
20260831234618 25 214 9.7 0.0 0.00 0.03 0.03 71 985.8
20260831233117 25 213 8.0 0.0 0.00 0.03 0.03 64 985.8
20260831231618 26 206 14.5 0.0 0.00 0.03 0.03 64 985.9
20260831230120 26 202 16.1 0.0 0.00 0.03 0.03 64 985.9
20260831224617 27 201 17.7 0.0 0.00 0.03 0.03 61 986.4
20260831223119 27 209 16.1 0.0 0.00 0.03 0.03 56 986.8
20260831221614 28 211 19.3 0.0 0.00 0.03 0.03 56 986.8
20260831220118 28 209 19.3 0.0 0.00 0.03 0.03 56 986.8
20260831214617 28 204 19.3 0.0 0.00 0.03 0.03 59 987.3
20260831213114 28 206 17.7 0.0 0.00 0.03 0.03 54 987.0
20260831211616 30 203 20.9 0.0 0.00 0.03 0.03 54 987.1
20260831210117 30 206 19.3 0.0 0.00 0.03 0.03 54 987.1
20260831204614 30 200 19.3 0.0 0.00 0.03 0.03 58 988.2
20260831203115 30 202 19.3 0.0 0.00 0.03 0.03 79 987.8
20260831201616 26 183 11.3 0.0 0.10 0.13 0.13 79 987.5
20260831200117 25 178 9.7 0.0 0.10 0.13 0.13 73 988.2
20260831194617 25 219 16.1 0.0 0.00 0.03 0.03 63 988.4
20260831193116 25 232 11.3 0.0 0.00 0.03 0.03 63 988.4
20260831191616 28 180 12.9 0.0 0.00 0.03 0.03 63 988.4
20260831190118 28 193 14.5 0.0 0.00 0.03 0.03 59 987.7
20260831184614 28 200 14.5 0.0 0.00 0.00 0.00 66 988.3
20260831183115 29 184 17.7 0.0 0.00 0.00 0.00 66 988.4
20260831181615 28 193 17.7 0.0 0.00 0.00 0.00 66 988.4
20260831180116 28 192 16.1 0.0 0.00 0.00 0.00 66 988.4
20260831174615 28 200 16.1 0.0 0.00 0.00 0.00 63 989.1
20260831173115 28 205 17.7 0.0 0.00 0.00 0.00 61 988.0
20260831171615 28 202 17.7 0.0 0.00 0.00 0.00 61 988.0
20260831170116 27 201 17.7 0.0 0.00 0.00 0.00 61 988.0
20260831164615 27 197 14.5 0.0 0.00 0.00 0.00 71 989.8
20260831163315 -17 0 0.0 0.0 0.00 0.00 0.00 100
20260831161944 -17 0 0.0 0.0 0.00 0.00 0.00 100
20260831160115 26 211 19.3 0.0 0.00 0.00 0.00 61 988.4
20260831154614 26 211 19.3 0.0 0.00 0.00 0.00 76 989.9
20260831153114 25 205 16.1 0.0 0.00 0.00 0.00 72 989.2
20260831151614 26 237 17.7 0.0 0.00 0.00 0.00 72 989.3
20260831150115 25 232 14.5 0.0 0.00 0.00 0.00 72 989.3
20260831144618 25 226 9.7 0.0 0.00 0.00 0.00 78 988.9
20260831143115 24 224 9.7 0.0 0.00 0.00 0.00 72 988.8
20260831141614 23 218 12.9 0.0 0.00 0.00 0.00 72 988.7
20260831140114 23 234 14.5 0.0 0.00 0.00 0.00 78 989.4
20260831134613 24 210 12.9 0.0 0.00 0.00 0.00 76 988.7
20260831133623 24 206 11.3 0.0 0.00 0.00 0.00 76 988.7
20260831131615 22 208 9.7 0.0 0.00 0.00 0.00 76 988.7
20260831130119 23 201 9.7 0.0 0.00 0.00 0.00 76 988.7
20260831124615 23 197 8.0 0.0 0.00 0.00 0.00 85 988.0
20260831123119 22 178 8.0 0.0 0.00 0.00 0.00 85 988.0
20260831121622 21 160 6.4 0.0 0.00 0.00 0.00 85 988.0
20260831120123 21 177 6.4 0.0 0.00 0.00 0.00 85 988.0
20260831114621 20 182 8.0 0.0 0.00 0.00 0.00 85 988.8
20260831113118 20 154 11.3 0.0 0.00 0.00 0.00 85 988.8
20260831111621 20 176 9.7 0.0 0.00 0.00 0.00 85 988.8
20260831110119 20 174 9.7 0.0 0.00 0.00 0.00 85 988.8